Wayana — PE5639 — position and weather

sailwx.info

Track history (hours):
 
Tides and Currents Weather Stations Pressure Air Temp Water Temp Dewpoint Dewpoint Depression Visibility Wind Speed Wind Dir Waves Ship Positions

Wayana

Last reported at 2015-Jul-02 09:06 UTC. Time now 2015-Jul-03 10:36 UTC.
Position N 63°41' E 009°06'.

Length 14 m.

Type: Sailing vessel. MMSI: 244020670.

Date/timePositionNaut miles runAvg speedWind from/ knotsBaromVisibWave heightAir tempDewpointWater temp
2015-Jul-02 09:06N 63°41' E 009°06'4 5.4
2015-Jul-02 08:25N 63°39' E 009°11'7 0.2
2015-Jun-30 14:26N 63°38' E 009°28'5 6.1
2015-Jun-30 13:33N 63°39' E 009°40'5 5.0
2015-Jun-30 12:27N 63°36' E 009°50'5 6.0
2015-Jun-30 11:33N 63°31' E 009°55'6 5.7
2015-Jun-30 10:33N 63°28' E 010°06'5 5.4
2015-Jun-30 09:33N 63°27' E 010°18'2 2.3
2015-Jun-30 08:32N 63°26' E 010°22'0 0.0
2015-Jun-30 07:32N 63°26' E 010°22'0 0.0
2015-Jun-30 06:32N 63°26' E 010°22'0 0.0
2015-Jun-30 05:32N 63°26' E 010°22'0 0.0
2015-Jun-30 04:31N 63°26' E 010°22'0 0.0
2015-Jun-30 03:31N 63°26' E 010°22'0 0.0
2015-Jun-30 02:31N 63°26' E 010°22'0 0.0
2015-Jun-30 01:31N 63°26' E 010°22'0 0.0
2015-Jun-30 00:31N 63°26' E 010°22'0 0.0
2015-Jun-29 23:31N 63°26' E 010°22'0 0.0
2015-Jun-29 22:31N 63°26' E 010°22'0 0.0
2015-Jun-29 21:31N 63°26' E 010°22'0 0.0
2015-Jun-29 20:31N 63°26' E 010°22'0 0.0
2015-Jun-29 19:31N 63°26' E 010°22'0 0.0
2015-Jun-29 18:31N 63°26' E 010°22'0 0.0
2015-Jun-29 17:31N 63°26' E 010°22'0 0.0
2015-Jun-29 16:31N 63°26' E 010°22'0 0.0
2015-Jun-29 15:31N 63°26' E 010°22'0 0.0
2015-Jun-29 14:31N 63°26' E 010°22'0 0.0
2015-Jun-29 13:31N 63°26' E 010°22'0 0.0
2015-Jun-29 12:33N 63°26' E 010°22'0 0.0
2015-Jun-29 11:33N 63°26' E 010°22'0 0.0
2015-Jun-29 10:33N 63°26' E 010°22'0 0.0
2015-Jun-29 09:33N 63°26' E 010°22'0 0.0
2015-Jun-29 08:33N 63°26' E 010°22'0 0.0
2015-Jun-29 07:33N 63°26' E 010°22'0 0.0
2015-Jun-29 06:33N 63°26' E 010°22'0 0.0
2015-Jun-29 05:33N 63°26' E 010°22'0 0.0
2015-Jun-29 04:33N 63°26' E 010°22'0 0.0
2015-Jun-29 03:33N 63°26' E 010°22'0 0.0
2015-Jun-29 02:33N 63°26' E 010°22'0 0.0
2015-Jun-29 01:33N 63°26' E 010°22'0 0.0
2015-Jun-29 00:32N 63°26' E 010°22'0 0.0
2015-Jun-28 23:32N 63°26' E 010°22'0 0.0
2015-Jun-28 22:32N 63°26' E 010°22'0 0.0
2015-Jun-28 21:32N 63°26' E 010°22'0 0.0
2015-Jun-28 20:32N 63°26' E 010°22'0 0.0
2015-Jun-28 19:32N 63°26' E 010°22'4 3.7
2015-Jun-28 18:34N 63°29' E 010°27'5 5.2
2015-Jun-28 17:33N 63°33' E 010°33'3 2.6
2015-Jun-28 16:33N 63°35' E 010°38'0 0.0
2015-Jun-28 15:33N 63°35' E 010°38'0 0.0
2015-Jun-28 14:33N 63°35' E 010°38'0 0.0
2015-Jun-28 13:32N 63°35' E 010°38'0 0.0
2015-Jun-28 12:32N 63°35' E 010°38'0 0.0
2015-Jun-28 11:32N 63°35' E 010°38'0 0.0
2015-Jun-28 10:32N 63°35' E 010°38'0 0.0
2015-Jun-28 09:32N 63°35' E 010°38'0 0.0
2015-Jun-28 08:32N 63°35' E 010°38'0 0.0
2015-Jun-28 07:32N 63°35' E 010°38'0 0.0
2015-Jun-28 06:31N 63°35' E 010°38'0 0.0
2015-Jun-28 05:31N 63°35' E 010°38'0 0.0
2015-Jun-28 04:31N 63°35' E 010°38'0 0.0
2015-Jun-28 03:31N 63°35' E 010°38'0 0.0
2015-Jun-28 02:31N 63°35' E 010°38'0 0.0
2015-Jun-28 01:31N 63°35' E 010°38'0 0.0
2015-Jun-28 00:34N 63°35' E 010°38'0 0.0
2015-Jun-27 23:33N 63°35' E 010°38'0 0.0
2015-Jun-27 22:33N 63°35' E 010°38'0 0.0
2015-Jun-27 21:33N 63°35' E 010°38'0 0.0
2015-Jun-27 20:33N 63°35' E 010°38'0 0.0
2015-Jun-27 19:33N 63°35' E 010°38'0 0.0
2015-Jun-27 18:33N 63°35' E 010°38'0 0.0
2015-Jun-27 17:32N 63°35' E 010°38'0 0.0
2015-Jun-27 16:32N 63°35' E 010°38'0 0.0
2015-Jun-27 15:32N 63°35' E 010°38'0 0.0
2015-Jun-27 14:32N 63°35' E 010°38'0 0.0
2015-Jun-27 13:32N 63°35' E 010°38'0 0.0
2015-Jun-27 12:32N 63°35' E 010°38'0 0.0
2015-Jun-27 11:32N 63°35' E 010°38'0 0.0
2015-Jun-27 10:31N 63°35' E 010°38'0 0.0
2015-Jun-27 09:31N 63°35' E 010°38'0 0.0
2015-Jun-27 08:31N 63°35' E 010°38'0 0.0
2015-Jun-27 07:28N 63°35' E 010°38'0 0.0
2015-Jun-27 06:33N 63°35' E 010°38'0 0.0
2015-Jun-27 05:33N 63°35' E 010°38'0 0.0
2015-Jun-27 04:33N 63°35' E 010°38'0 0.0
2015-Jun-27 03:29N 63°35' E 010°38'0 0.0
2015-Jun-27 02:32N 63°35' E 010°38'0 0.0
2015-Jun-27 01:32N 63°35' E 010°38'0 0.0
2015-Jun-27 00:32N 63°35' E 010°38'0 0.0
2015-Jun-26 23:32N 63°35' E 010°38'0 0.0
2015-Jun-26 22:29N 63°35' E 010°38'0 0.0
2015-Jun-26 21:29N 63°35' E 010°38'0 0.0
2015-Jun-26 20:31N 63°35' E 010°38'0 0.0
2015-Jun-26 19:31N 63°35' E 010°38'0 0.0
2015-Jun-26 18:31N 63°35' E 010°38'0 0.0
2015-Jun-26 17:27N 63°35' E 010°38'0 0.0
2015-Jun-26 16:33N 63°35' E 010°38'0 0.0
2015-Jun-26 15:33N 63°35' E 010°38'1 0.7
2015-Jun-26 14:33N 63°35' E 010°37'6 5.7
2015-Jun-26 13:33N 63°31' E 010°30'6 5.7
2015-Jun-26 12:33N 63°26' E 010°22'0 0.1
2015-Jun-26 11:33N 63°26' E 010°22'0 0.0
2015-Jun-26 10:32N 63°26' E 010°22'0 0.0
2015-Jun-26 09:32N 63°26' E 010°22'0 0.0
2015-Jun-26 08:31N 63°26' E 010°22'0 0.0
2015-Jun-26 07:31N 63°26' E 010°22'0 0.0
2015-Jun-26 06:31N 63°26' E 010°22'0 0.0
2015-Jun-26 05:31N 63°26' E 010°22'0 0.0
2015-Jun-26 04:31N 63°26' E 010°22'0 0.0
2015-Jun-26 03:33N 63°26' E 010°22'0 0.0
2015-Jun-26 02:33N 63°26' E 010°22'0 0.0
2015-Jun-26 01:33N 63°26' E 010°22'0 0.0
2015-Jun-26 00:33N 63°26' E 010°22'0 0.0
2015-Jun-25 23:33N 63°26' E 010°22'0 0.0
2015-Jun-25 22:32N 63°26' E 010°22'0 0.0
2015-Jun-25 21:32N 63°26' E 010°22'0 0.0
2015-Jun-25 20:32N 63°26' E 010°22'0 0.0
2015-Jun-25 19:32N 63°26' E 010°22'0 0.0
2015-Jun-25 18:32N 63°26' E 010°22'0 0.0
2015-Jun-25 17:31N 63°26' E 010°22'0 0.0
2015-Jun-25 16:31N 63°26' E 010°22'0 0.0
2015-Jun-25 15:31N 63°26' E 010°22'0 0.0
2015-Jun-25 14:31N 63°26' E 010°22'0 0.0
2015-Jun-25 13:31N 63°26' E 010°22'0 0.0
2015-Jun-25 12:31N 63°26' E 010°22'0 0.0
2015-Jun-25 11:34N 63°26' E 010°22'0 0.0
2015-Jun-25 10:33N 63°26' E 010°22'0 0.0
2015-Jun-25 09:33N 63°26' E 010°22'0 0.0
2015-Jun-25 08:33N 63°26' E 010°22'0 0.0
2015-Jun-25 07:33N 63°26' E 010°22'0 0.0
2015-Jun-25 06:33N 63°26' E 010°22'0 0.0
2015-Jun-25 05:33N 63°26' E 010°22'0 0.0
2015-Jun-25 04:33N 63°26' E 010°22'0 0.0
2015-Jun-25 03:32N 63°26' E 010°22'0 0.0
2015-Jun-25 02:32N 63°26' E 010°22'0 0.0
2015-Jun-25 01:32N 63°26' E 010°22'0 0.0
2015-Jun-25 00:32N 63°26' E 010°22'0 0.0
2015-Jun-24 23:32N 63°26' E 010°22'0 0.0
2015-Jun-24 22:31N 63°26' E 010°22'0 0.0
2015-Jun-24 21:31N 63°26' E 010°22'0 0.0
2015-Jun-24 20:31N 63°26' E 010°22'0 0.0
2015-Jun-24 19:31N 63°26' E 010°22'0 0.0
2015-Jun-24 18:31N 63°26' E 010°22'0 0.0
2015-Jun-24 17:28N 63°26' E 010°22'0 0.0
2015-Jun-24 16:34N 63°26' E 010°22'0 0.0
2015-Jun-24 15:33N 63°26' E 010°22'0 0.0
2015-Jun-24 14:33N 63°26' E 010°22'0 0.0
2015-Jun-24 13:33N 63°26' E 010°22'0 0.0
2015-Jun-24 12:33N 63°26' E 010°22'0 0.0
2015-Jun-24 11:33N 63°26' E 010°22'0 0.0
2015-Jun-24 10:33N 63°26' E 010°22'0 0.0
2015-Jun-24 09:32N 63°26' E 010°22'0 0.0
2015-Jun-24 08:32N 63°26' E 010°22'0 0.0
2015-Jun-24 07:32N 63°26' E 010°22'0 0.0
2015-Jun-24 06:32N 63°26' E 010°22'0 0.0
2015-Jun-24 05:32N 63°26' E 010°22'0 0.0
2015-Jun-24 04:31N 63°26' E 010°22'0 0.0
2015-Jun-24 03:31N 63°26' E 010°22'0 0.0
2015-Jun-24 02:31N 63°26' E 010°22'0 0.0
2015-Jun-24 01:31N 63°26' E 010°22'0 0.0
2015-Jun-24 00:31N 63°26' E 010°22'0 0.0
2015-Jun-23 23:31N 63°26' E 010°22'0 0.0
2015-Jun-23 22:34N 63°26' E 010°22'0 0.0
2015-Jun-23 21:33N 63°26' E 010°22'0 0.0
2015-Jun-23 20:33N 63°26' E 010°22'0 0.0
2015-Jun-23 19:33N 63°26' E 010°22'0 0.0
2015-Jun-23 19:03N 63°26' E 010°22'0 0.0
2015-Jun-22 19:32N 63°26' E 010°22'0 0.0
2015-Jun-22 18:32N 63°26' E 010°22'0 0.0
2015-Jun-22 17:32N 63°26' E 010°22'0 0.0
2015-Jun-22 16:32N 63°26' E 010°22'0 0.0
2015-Jun-22 15:32N 63°26' E 010°22'0 0.0
2015-Jun-22 14:32N 63°26' E 010°22'0 0.0
2015-Jun-22 13:32N 63°26' E 010°22'0 0.0
2015-Jun-22 12:29N 63°26' E 010°22'0 0.0
2015-Jun-22 11:32N 63°26' E 010°22'0 0.0
2015-Jun-22 10:32N 63°26' E 010°22'0 0.0
2015-Jun-22 09:32N 63°26' E 010°22'  
Track history (hours):
 
Tides and Currents Weather Stations Pressure Air Temp Water Temp Dewpoint Dewpoint Depression Visibility Wind Speed Wind Dir Waves Ship Positions

Wayana

Last reported at 2015-Jul-02 09:06 UTC. Time now 2015-Jul-03 10:36 UTC.
Position N 63°41' E 009°06'.

Length 14 m.

Type: Sailing vessel. MMSI: 244020670.

Date/timePositionNaut miles runAvg speedWind from/ knotsBaromVisibWave heightAir tempDewpointWater temp
2015-Jul-02 09:06N 63°41' E 009°06'4 5.4
2015-Jul-02 08:25N 63°39' E 009°11'7 0.2
2015-Jun-30 14:26N 63°38' E 009°28'5 6.1
2015-Jun-30 13:33N 63°39' E 009°40'5 5.0
2015-Jun-30 12:27N 63°36' E 009°50'5 6.0
2015-Jun-30 11:33N 63°31' E 009°55'6 5.7
2015-Jun-30 10:33N 63°28' E 010°06'5 5.4
2015-Jun-30 09:33N 63°27' E 010°18'2 2.3
2015-Jun-30 08:32N 63°26' E 010°22'0 0.0
2015-Jun-30 07:32N 63°26' E 010°22'0 0.0
2015-Jun-30 06:32N 63°26' E 010°22'0 0.0
2015-Jun-30 05:32N 63°26' E 010°22'0 0.0
2015-Jun-30 04:31N 63°26' E 010°22'0 0.0
2015-Jun-30 03:31N 63°26' E 010°22'0 0.0
2015-Jun-30 02:31N 63°26' E 010°22'0 0.0
2015-Jun-30 01:31N 63°26' E 010°22'0 0.0
2015-Jun-30 00:31N 63°26' E 010°22'0 0.0
2015-Jun-29 23:31N 63°26' E 010°22'0 0.0
2015-Jun-29 22:31N 63°26' E 010°22'0 0.0
2015-Jun-29 21:31N 63°26' E 010°22'0 0.0
2015-Jun-29 20:31N 63°26' E 010°22'0 0.0
2015-Jun-29 19:31N 63°26' E 010°22'0 0.0
2015-Jun-29 18:31N 63°26' E 010°22'0 0.0
2015-Jun-29 17:31N 63°26' E 010°22'0 0.0
2015-Jun-29 16:31N 63°26' E 010°22'0 0.0
2015-Jun-29 15:31N 63°26' E 010°22'0 0.0
2015-Jun-29 14:31N 63°26' E 010°22'0 0.0
2015-Jun-29 13:31N 63°26' E 010°22'0 0.0
2015-Jun-29 12:33N 63°26' E 010°22'0 0.0
2015-Jun-29 11:33N 63°26' E 010°22'0 0.0
2015-Jun-29 10:33N 63°26' E 010°22'0 0.0
2015-Jun-29 09:33N 63°26' E 010°22'0 0.0
2015-Jun-29 08:33N 63°26' E 010°22'0 0.0
2015-Jun-29 07:33N 63°26' E 010°22'0 0.0
2015-Jun-29 06:33N 63°26' E 010°22'0 0.0
2015-Jun-29 05:33N 63°26' E 010°22'0 0.0
2015-Jun-29 04:33N 63°26' E 010°22'0 0.0
2015-Jun-29 03:33N 63°26' E 010°22'0 0.0
2015-Jun-29 02:33N 63°26' E 010°22'0 0.0
2015-Jun-29 01:33N 63°26' E 010°22'0 0.0
2015-Jun-29 00:32N 63°26' E 010°22'0 0.0
2015-Jun-28 23:32N 63°26' E 010°22'0 0.0
2015-Jun-28 22:32N 63°26' E 010°22'0 0.0
2015-Jun-28 21:32N 63°26' E 010°22'0 0.0
2015-Jun-28 20:32N 63°26' E 010°22'0 0.0
2015-Jun-28 19:32N 63°26' E 010°22'4 3.7
2015-Jun-28 18:34N 63°29' E 010°27'5 5.2
2015-Jun-28 17:33N 63°33' E 010°33'3 2.6
2015-Jun-28 16:33N 63°35' E 010°38'0 0.0
2015-Jun-28 15:33N 63°35' E 010°38'0 0.0
2015-Jun-28 14:33N 63°35' E 010°38'0 0.0
2015-Jun-28 13:32N 63°35' E 010°38'0 0.0
2015-Jun-28 12:32N 63°35' E 010°38'0 0.0
2015-Jun-28 11:32N 63°35' E 010°38'0 0.0
2015-Jun-28 10:32N 63°35' E 010°38'0 0.0
2015-Jun-28 09:32N 63°35' E 010°38'0 0.0
2015-Jun-28 08:32N 63°35' E 010°38'0 0.0
2015-Jun-28 07:32N 63°35' E 010°38'0 0.0
2015-Jun-28 06:31N 63°35' E 010°38'0 0.0
2015-Jun-28 05:31N 63°35' E 010°38'0 0.0
2015-Jun-28 04:31N 63°35' E 010°38'0 0.0
2015-Jun-28 03:31N 63°35' E 010°38'0 0.0
2015-Jun-28 02:31N 63°35' E 010°38'0 0.0
2015-Jun-28 01:31N 63°35' E 010°38'0 0.0
2015-Jun-28 00:34N 63°35' E 010°38'0 0.0
2015-Jun-27 23:33N 63°35' E 010°38'0 0.0
2015-Jun-27 22:33N 63°35' E 010°38'0 0.0
2015-Jun-27 21:33N 63°35' E 010°38'0 0.0
2015-Jun-27 20:33N 63°35' E 010°38'0 0.0
2015-Jun-27 19:33N 63°35' E 010°38'0 0.0
2015-Jun-27 18:33N 63°35' E 010°38'0 0.0
2015-Jun-27 17:32N 63°35' E 010°38'0 0.0
2015-Jun-27 16:32N 63°35' E 010°38'0 0.0
2015-Jun-27 15:32N 63°35' E 010°38'0 0.0
2015-Jun-27 14:32N 63°35' E 010°38'0 0.0
2015-Jun-27 13:32N 63°35' E 010°38'0 0.0
2015-Jun-27 12:32N 63°35' E 010°38'0 0.0
2015-Jun-27 11:32N 63°35' E 010°38'0 0.0
2015-Jun-27 10:31N 63°35' E 010°38'0 0.0
2015-Jun-27 09:31N 63°35' E 010°38'0 0.0
2015-Jun-27 08:31N 63°35' E 010°38'0 0.0
2015-Jun-27 07:28N 63°35' E 010°38'0 0.0
2015-Jun-27 06:33N 63°35' E 010°38'0 0.0
2015-Jun-27 05:33N 63°35' E 010°38'0 0.0
2015-Jun-27 04:33N 63°35' E 010°38'0 0.0
2015-Jun-27 03:29N 63°35' E 010°38'0 0.0
2015-Jun-27 02:32N 63°35' E 010°38'0 0.0
2015-Jun-27 01:32N 63°35' E 010°38'0 0.0
2015-Jun-27 00:32N 63°35' E 010°38'0 0.0
2015-Jun-26 23:32N 63°35' E 010°38'0 0.0
2015-Jun-26 22:29N 63°35' E 010°38'0 0.0
2015-Jun-26 21:29N 63°35' E 010°38'0 0.0
2015-Jun-26 20:31N 63°35' E 010°38'0 0.0
2015-Jun-26 19:31N 63°35' E 010°38'0 0.0
2015-Jun-26 18:31N 63°35' E 010°38'0 0.0
2015-Jun-26 17:27N 63°35' E 010°38'0 0.0
2015-Jun-26 16:33N 63°35' E 010°38'0 0.0
2015-Jun-26 15:33N 63°35' E 010°38'1 0.7
2015-Jun-26 14:33N 63°35' E 010°37'6 5.7
2015-Jun-26 13:33N 63°31' E 010°30'6 5.7
2015-Jun-26 12:33N 63°26' E 010°22'0 0.1
2015-Jun-26 11:33N 63°26' E 010°22'0 0.0
2015-Jun-26 10:32N 63°26' E 010°22'0 0.0
2015-Jun-26 09:32N 63°26' E 010°22'0 0.0
2015-Jun-26 08:31N 63°26' E 010°22'0 0.0
2015-Jun-26 07:31N 63°26' E 010°22'0 0.0
2015-Jun-26 06:31N 63°26' E 010°22'0 0.0
2015-Jun-26 05:31N 63°26' E 010°22'0 0.0
2015-Jun-26 04:31N 63°26' E 010°22'0 0.0
2015-Jun-26 03:33N 63°26' E 010°22'0 0.0
2015-Jun-26 02:33N 63°26' E 010°22'0 0.0
2015-Jun-26 01:33N 63°26' E 010°22'0 0.0
2015-Jun-26 00:33N 63°26' E 010°22'0 0.0
2015-Jun-25 23:33N 63°26' E 010°22'0 0.0
2015-Jun-25 22:32N 63°26' E 010°22'0 0.0
2015-Jun-25 21:32N 63°26' E 010°22'0 0.0
2015-Jun-25 20:32N 63°26' E 010°22'0 0.0
2015-Jun-25 19:32N 63°26' E 010°22'0 0.0
2015-Jun-25 18:32N 63°26' E 010°22'0 0.0
2015-Jun-25 17:31N 63°26' E 010°22'0 0.0
2015-Jun-25 16:31N 63°26' E 010°22'0 0.0
2015-Jun-25 15:31N 63°26' E 010°22'0 0.0
2015-Jun-25 14:31N 63°26' E 010°22'0 0.0
2015-Jun-25 13:31N 63°26' E 010°22'0 0.0
2015-Jun-25 12:31N 63°26' E 010°22'0 0.0
2015-Jun-25 11:34N 63°26' E 010°22'0 0.0
2015-Jun-25 10:33N 63°26' E 010°22'0 0.0
2015-Jun-25 09:33N 63°26' E 010°22'0 0.0
2015-Jun-25 08:33N 63°26' E 010°22'0 0.0
2015-Jun-25 07:33N 63°26' E 010°22'0 0.0
2015-Jun-25 06:33N 63°26' E 010°22'0 0.0
2015-Jun-25 05:33N 63°26' E 010°22'0 0.0
2015-Jun-25 04:33N 63°26' E 010°22'0 0.0
2015-Jun-25 03:32N 63°26' E 010°22'0 0.0
2015-Jun-25 02:32N 63°26' E 010°22'0 0.0
2015-Jun-25 01:32N 63°26' E 010°22'0 0.0
2015-Jun-25 00:32N 63°26' E 010°22'0 0.0
2015-Jun-24 23:32N 63°26' E 010°22'0 0.0
2015-Jun-24 22:31N 63°26' E 010°22'0 0.0
2015-Jun-24 21:31N 63°26' E 010°22'0 0.0
2015-Jun-24 20:31N 63°26' E 010°22'0 0.0
2015-Jun-24 19:31N 63°26' E 010°22'0 0.0
2015-Jun-24 18:31N 63°26' E 010°22'0 0.0
2015-Jun-24 17:28N 63°26' E 010°22'0 0.0
2015-Jun-24 16:34N 63°26' E 010°22'0 0.0
2015-Jun-24 15:33N 63°26' E 010°22'0 0.0
2015-Jun-24 14:33N 63°26' E 010°22'0 0.0
2015-Jun-24 13:33N 63°26' E 010°22'0 0.0
2015-Jun-24 12:33N 63°26' E 010°22'0 0.0
2015-Jun-24 11:33N 63°26' E 010°22'0 0.0
2015-Jun-24 10:33N 63°26' E 010°22'0 0.0
2015-Jun-24 09:32N 63°26' E 010°22'0 0.0
2015-Jun-24 08:32N 63°26' E 010°22'0 0.0
2015-Jun-24 07:32N 63°26' E 010°22'0 0.0
2015-Jun-24 06:32N 63°26' E 010°22'0 0.0
2015-Jun-24 05:32N 63°26' E 010°22'0 0.0
2015-Jun-24 04:31N 63°26' E 010°22'0 0.0
2015-Jun-24 03:31N 63°26' E 010°22'0 0.0
2015-Jun-24 02:31N 63°26' E 010°22'0 0.0
2015-Jun-24 01:31N 63°26' E 010°22'0 0.0
2015-Jun-24 00:31N 63°26' E 010°22'0 0.0
2015-Jun-23 23:31N 63°26' E 010°22'0 0.0
2015-Jun-23 22:34N 63°26' E 010°22'0 0.0
2015-Jun-23 21:33N 63°26' E 010°22'0 0.0
2015-Jun-23 20:33N 63°26' E 010°22'0 0.0
2015-Jun-23 19:33N 63°26' E 010°22'0 0.0
2015-Jun-23 19:03N 63°26' E 010°22'0 0.0
2015-Jun-22 19:32N 63°26' E 010°22'0 0.0
2015-Jun-22 18:32N 63°26' E 010°22'0 0.0
2015-Jun-22 17:32N 63°26' E 010°22'0 0.0
2015-Jun-22 16:32N 63°26' E 010°22'0 0.0
2015-Jun-22 15:32N 63°26' E 010°22'0 0.0
2015-Jun-22 14:32N 63°26' E 010°22'0 0.0
2015-Jun-22 13:32N 63°26' E 010°22'0 0.0
2015-Jun-22 12:29N 63°26' E 010°22'0 0.0
2015-Jun-22 11:32N 63°26' E 010°22'0 0.0
2015-Jun-22 10:32N 63°26' E 010°22'0 0.0
2015-Jun-22 09:32N 63°26' E 010°22'  

Dump ship's entire track history